Hourly Data Report for October 25, 2014

All times are specified in Local Standard Time (LST). Add 1 hour to adjust for Daylight Saving Time where and when it is observed.

OTTAWA INTL A
ONTARIO

45°19'00.000" N
75°40'00.000" W
114.90 m
6106001
71628
YOW

Download Data

Hourly Data (October 2014)
Hourly Data Report for October 25, 2014
Temp Definition
°C
Dew Point Temp Definition
°C
Rel Hum Definition
%
Wind Dir Definition
10's deg

Wind Spd Definition
km/h
Visibility Definition
km
Stn Press Definition
kPa
Hmdx Definition


Wind Chill Definition


Weather Definition


TIME
00:00 Legend Double Dagger 6.9 1.4 68 29 14 24.1 99.57     LegendNANA
01:00 Legend Double Dagger 6.2 1.4 71 28 18 24.1 99.58     Clear
02:00 Legend Double Dagger 4.8 1.1 77 28 13 24.1 99.58     LegendNANA
03:00 Legend Double Dagger 4.7 1.2 78 28 11 24.1 99.54     LegendNANA
04:00 Legend Double Dagger 4.3 1.3 81 25 7 24.1 99.47     Clear
05:00 Legend Double Dagger 3.3 1.2 86 21 7 24.1 99.45     LegendNANA
06:00 Legend Double Dagger 2.4 0.6 88 23 11 24.1 99.45     LegendNANA
07:00 Legend Double Dagger 3.8 1.5 85 18 10 24.1 99.40     Mostly Cloudy
08:00 Legend Double Dagger 5.5 3.4 86 18 8 24.1 99.33     LegendNANA
09:00 Legend Double Dagger 7.9 5.4 84 21 13 19.3 99.23     LegendNANA
10:00 Legend Double Dagger 9.3 6.2 81 18 14 19.3 99.04     Cloudy
11:00 Legend Double Dagger 12.9 7.6 70 20 22 19.3 98.86     LegendNANA
12:00 Legend Double Dagger 13.8 8.7 71 21 18 16.1 98.78     LegendNANA
13:00 Legend Double Dagger 12.8 10.0 83 20 11 8.1 98.64     Rain,Fog
14:00 Legend Double Dagger 11.7 10.6 93 18 12 4.8 98.52     Rain,Fog
15:00 Legend Double Dagger 11.6 10.8 95 26 16 8.1 98.50     Rain,Fog
16:00 Legend Double Dagger 12.2 11.0 92 22 16 8.1 98.42     Fog
17:00 Legend Double Dagger 10.8 9.7 93 25 11 9.7 98.41     Fog
18:00 Legend Double Dagger 10.0 9.2 95 24 14 19.3 98.42     LegendNANA
19:00 Legend Double Dagger 10.1 9.0 93 23 14 16.1 98.40     Mostly Cloudy
20:00 Legend Double Dagger 10.5 8.9 90 26 21 16.1 98.42     Rain
21:00 Legend Double Dagger 8.0 7.1 94 26 7 16.1 98.51     Rain
22:00 Legend Double Dagger 8.1 7.5 96 26 12 16.1 98.49     Rain
23:00 Legend Double Dagger 7.8 7.2 96 23 11 16.1 98.42     Rain

Notes on Data Quality.

Legend

  • E = Estimated
  • M = Missing
  • NA = Not Available
  • ‡ = Partner data that is not subject to review by the National Climate Archives
Date modified: